This is the latest recevied weather packets stored in our database for station/object GOLDWX. If no packets are shown the sender has not sent any weather packets the latest 10 day(s).
| Time | Temp. | Humidity | Pressure | Rain* | Wind** | Luminosity | Snow |
|---|---|---|---|---|---|---|---|
| 1777884227 | 11.67° C | 42% | 1010.5 hPa | 0 mm | - | - | - |
| 1777883926 | 11.67° C | 42% | 1010.5 hPa | 0 mm | - | - | - |
| 1777883324 | 11.67° C | 44% | 1010.5 hPa | 0 mm | - | - | - |
| 1777883024 | 12.22° C | 42% | 1010.5 hPa | 0 mm | - | - | - |
| 1777882422 | 12.22° C | 39% | 1010.4 hPa | 0 mm | - | - | - |
| 1777882122 | 12.78° C | 38% | 1010.5 hPa | 0 mm | - | - | - |
| 1777881519 | 12.78° C | 37% | 1010.5 hPa | 0 mm | - | - | - |
| 1777881219 | 12.78° C | 37% | 1010.4 hPa | 0 mm | - | - | - |
| 1777880617 | 12.78° C | 38% | 1010.4 hPa | 0 mm | - | - | - |
| 1777880316 | 12.78° C | 37% | 1010.3 hPa | 0 mm | - | - | - |
| 1777879714 | 13.33° C | 37% | 1010.3 hPa | 0 mm | - | - | - |
| 1777879414 | 13.33° C | 38% | 1010.3 hPa | 0 mm | - | - | - |
| 1777878812 | 13.33° C | 37% | 1010.3 hPa | 0 mm | - | - | - |
| 1777878511 | 13.33° C | 36% | 1010.3 hPa | 0 mm | - | - | - |
| 1777877909 | 13.89° C | 34% | 1010.2 hPa | 0 mm | - | - | - |
| 1777877609 | 13.89° C | 34% | 1010.2 hPa | 0 mm | - | - | - |
| 1777877007 | 14.44° C | 33% | 1010 hPa | 0 mm | - | - | - |
| 1777876706 | 14.44° C | 33% | 1010 hPa | 0 mm | - | - | - |
| 1777876105 | 14.44° C | 32% | 1009.9 hPa | 0 mm | - | - | - |
| 1777875803 | 14.44° C | 32% | 1009.9 hPa | 0 mm | - | - | - |
| 1777875202 | 14.44° C | 32% | 1010 hPa | 0 mm | - | - | - |
| 1777874901 | 14.44° C | 32% | 1010.1 hPa | 0 mm | - | - | - |
| 1777874299 | 13.89° C | 33% | 1010.1 hPa | 0 mm | - | - | - |
| 1777873999 | 13.89° C | 33% | 1010.1 hPa | 0 mm | - | - | - |
| 1777873397 | 13.89° C | 33% | 1009.9 hPa | 0 mm | - | - | - |
* Rain since midnight (hover to see other rain measurements)
** Current wind speed in m/s (hover to see current wind gust speed)